| time (UTC) | temp F | wind direction | speed knots | gust knots | rain 1hr in | rain 24hr in | rain mn in | humidity % | barometer mb |
| 20260504081534 | 56 | 165 | 2.6 | 5.2 | 0.00 | 0.00 | 0.00 | 68 | 1009.7 |
| 20260504044537 | 58 | 0 | 0.9 | 5.2 | 0.00 | 0.00 | 0.00 | 63 | 1011.6 |
| 20260504043030 | 59 | 106 | 3.5 | 9.6 | 0.00 | 0.00 | 0.00 | 60 | 1011.5 |
| 20260504041532 | 59 | 153 | 6.1 | 9.6 | 0.00 | 0.00 | 0.00 | 59 | 1011.4 |
| 20260504040030 | 59 | 171 | 7.0 | 11.3 | 0.00 | 0.00 | 0.00 | 59 | 1011.4 |
| 20260504034548 | 59 | 156 | 7.0 | 11.3 | 0.00 | 0.00 | 0.00 | 59 | 1011.7 |
| 20260504033029 | 59 | 194 | 6.1 | 10.4 | 0.00 | 0.00 | 0.00 | 60 | 1011.6 |
| 20260504031530 | 59 | 189 | 6.1 | 10.4 | 0.00 | 0.00 | 0.00 | 59 | 1012.1 |
| 20260504030042 | 59 | 153 | 5.2 | 8.7 | 0.00 | 0.00 | 0.00 | 60 | 1012.3 |
| 20260504024532 | 59 | 167 | 5.2 | 7.8 | 0.00 | 0.00 | 0.00 | 59 | 1012.4 |
| 20260504023031 | 59 | 132 | 4.3 | 6.1 | 0.00 | 0.00 | 0.00 | 59 | 1012.4 |
| 20260504021532 | 60 | 141 | 3.5 | 6.1 | 0.00 | 0.00 | 0.00 | 57 | 1012.7 |
| 20260504020031 | 61 | 139 | 4.3 | 7.0 | 0.00 | 0.00 | 0.00 | 55 | 1012.5 |
| 20260504014537 | 61 | 176 | 4.3 | 6.1 | 0.00 | 0.00 | 0.00 | 54 | 1012.5 |
| 20260504013036 | 61 | 151 | 2.6 | 4.3 | 0.00 | 0.00 | 0.00 | 53 | 1012.7 |
| 20260504011530 | 62 | 181 | 1.7 | 3.5 | 0.00 | 0.00 | 0.00 | 52 | 1012.6 |
| 20260504010029 | 62 | 192 | 1.7 | 4.3 | 0.00 | 0.00 | 0.00 | 51 | 1012.6 |
| 20260504004533 | 63 | 199 | 0.9 | 2.6 | 0.00 | 0.00 | 0.00 | 50 | 1012.6 |
| 20260504003034 | 64 | 180 | 1.7 | 9.6 | 0.00 | 0.00 | 0.00 | 48 | 1012.3 |
| 20260504001530 | 64 | 203 | 6.1 | 10.4 | 0.00 | 0.00 | 0.00 | 47 | 1011.6 |
| 20260504000031 | 65 | 212 | 8.7 | 14.8 | 0.00 | 0.00 | 0.00 | 46 | 1011.5 |
| 20260503234540 | 65 | 172 | 7.8 | 15.6 | 0.00 | 0.00 | 0.00 | 46 | 1011.8 |
| 20260503233031 | 66 | 183 | 6.1 | 12.2 | 0.00 | 0.00 | 0.00 | 46 | 1011.9 |
| 20260503231533 | 66 | 208 | 5.2 | 11.3 | 0.00 | 0.00 | 0.00 | 47 | 1012.0 |
| 20260503230035 | 66 | 191 | 7.8 | 13.0 | 0.00 | 0.00 | 0.00 | 46 | 1012.1 |
| 20260503224532 | 67 | 196 | 7.0 | 20.9 | 0.00 | 0.00 | 0.00 | 46 | 1012.4 |
| 20260503223030 | 66 | 206 | 8.7 | 17.4 | 0.00 | 0.00 | 0.00 | 45 | 1012.8 |
| 20260503221534 | 67 | 203 | 6.1 | 17.4 | 0.00 | 0.00 | 0.00 | 46 | 1013.0 |
| 20260503220032 | 67 | 211 | 7.0 | 17.4 | 0.00 | 0.00 | 0.00 | 45 | 1013.2 |
| 20260503214533 | 67 | 198 | 4.3 | 13.9 | 0.00 | 0.00 | 0.00 | 47 | 1013.5 |
| 20260503213032 | 66 | 217 | 6.1 | 18.2 | 0.00 | 0.00 | 0.00 | 46 | 1013.7 |
| 20260503211530 | 66 | 165 | 10.4 | 20.0 | 0.00 | 0.00 | 0.00 | 45 | 1014.0 |
| 20260503210029 | 66 | 188 | 7.8 | 19.1 | 0.00 | 0.00 | 0.00 | 46 | 1014.6 |
| 20260503204544 | 66 | 203 | 8.7 | 16.5 | 0.00 | 0.00 | 0.00 | 48 | 1014.7 |
| 20260503203032 | 65 | 228 | 8.7 | 19.1 | 0.00 | 0.00 | 0.00 | 45 | 1015.1 |
| 20260503201530 | 66 | 182 | 6.1 | 16.5 | 0.00 | 0.00 | 0.00 | 47 | 1015.7 |
| 20260503200034 | 65 | 185 | 6.1 | 15.6 | 0.00 | 0.00 | 0.00 | 47 | 1016.0 |
| 20260503194535 | 64 | 193 | 7.8 | 13.9 | 0.00 | 0.00 | 0.00 | 47 | 1016.1 |
| 20260503193042 | 64 | 233 | 6.1 | 16.5 | 0.00 | 0.00 | 0.00 | 45 | 1016.4 |
| 20260503191532 | 64 | 195 | 9.6 | 18.2 | 0.00 | 0.00 | 0.00 | 46 | 1016.7 |
| 20260503190035 | 64 | 216 | 6.1 | 14.8 | 0.00 | 0.00 | 0.00 | 48 | 1017.1 |
| 20260503184537 | 64 | 195 | 7.0 | 13.0 | 0.00 | 0.01 | 0.00 | 46 | 1017.5 |
| 20260503183035 | 63 | 200 | 8.7 | 15.6 | 0.00 | 0.01 | 0.00 | 48 | 1017.8 |
| 20260503180032 | 62 | 262 | 6.1 | 15.6 | 0.00 | 0.01 | 0.00 | 47 | 1018.0 |
| 20260503174534 | 63 | 198 | 7.8 | 13.9 | 0.00 | 0.04 | 0.00 | 48 | 1018.4 |
| 20260503173056 | 62 | 189 | 3.5 | 13.0 | 0.00 | 0.04 | 0.00 | 46 | 1018.8 |
| 20260503171532 | 61 | 245 | 4.3 | 13.0 | 0.00 | 0.04 | 0.00 | 48 | 1018.9 |
| 20260503170451 | 61 | 197 | 4.3 | 10.4 | 0.00 | 0.04 | 0.00 | 51 | 1019.2 |